sat.trackr.live / text

‹ back to catalog

STARLINK-35279

NORAD 66069 · 2025-235M

PAYLOAD ACTIVE UNKNOWN

§ Identity

Operator
Country
US
Launch date
2025-10-19
Launch site
AFETR
Launch vehicle
Mass (kg)
RCS (m²)

Purposes: comms

External: N2YO · Heavens-Above · Gunter

§ Orbital elements

Epoch: 2026-09-20T23:10:32.316384Z

Period
93.85 min
Inclination
53.1593°
Eccentricity
0.0001038
Mean motion
15.34390585 rev/d
Perigee alt
462.0 km
Apogee alt
463.4 km
Semi-major
6,840.9 km
B*
4.7929e-4
RAAN
57.1999°
Arg perigee
85.6959°
Mean anomaly
274.4162°
Rev number
5,283

§ Raw data

STARLINK-352791 66069U 25235M   26263.96565181  .00015847  00000+0  47929-3 0  99922 66069  53.1593  57.1999 0001038  85.6959 274.4162 15.34390585 52836

JSON: /api/v1/satellites/66069 · /tle

For live sub-satellite position, see the globe view (requires WebGL).

§ Visibility from observer

Set your observer location to see the next 7 days of passes ≥ 10°. The values pass through the URL so the page stays shareable.

No JS? Fill the form by hand. The geolocation button needs JavaScript.